Weather History for Ruidoso, NM

Change the Weather History Date:

Tuesday, October 9, 2012

  Actual Average Record
Temperature  
Mean Temperature 62 °F -  
Max Temperature 73 °F 66 °F 77 °F (1998)
Min Temperature 50 °F 44 °F 28 °F (2000)
Degree Days  
Heating Degree Days 4    
Growing Degree Days 12 (Base 50)    
Moisture  
Dew Point 25 °F    
Average Humidity 25    
Maximum Humidity 37    
Minimum Humidity 15    
Precipitation  
Precipitation 0.00 in - - ()
Sea Level Pressure  
Sea Level Pressure 30.20 in    
Wind  
Wind Speed 12 mph (West)    
Max Wind Speed 17 mph    
Max Gust Speed 28 mph    
Visibility 10 miles    
Events      
Averages and records for this station are not official NWS values.
T = Trace of Precipitation, MM = Missing Value Source: NWS Daily Summary

Daily Weather History Graph

Daily Weather History Graph

Search for Another Location

Airport:

Trip Planner

Search our weather history database for the weather conditions in past years. The results will help you decide how hot, cold, wet, or windy it might be!

Date:

Astronomy

Oct. 09, 2012 Rise Set
Actual Time 7:02 AM MDT 6:35 PM MDT
Civil Twilight 6:37 AM MDT 7:00 PM MDT
Nautical Twilight 6:08 AM MDT 7:28 PM MDT
Astronomical Twilight 5:40 AM MDT 7:57 PM MDT
Moon 12:58 AM MDT (10/9) 2:48 PM MDT (10/9)
Length of Visible Light 12h 22m
Length of Day
11h 32m
Last Quarter, 36% of the Moon is Illuminated
Oct 9
Last Quarter
Oct 15
New
Oct 21
First Quarter
Oct 29
Full
Nov 6
Last Quarter

Hourly Weather History & Observations

Time (MDT) Temp. Dew Point Humidity Pressure Visibility Wind Dir Wind Speed Gust Speed Precip Events Conditions
12:15 AM 59.0 °F 28.4 °F 31% 30.17 in 10.0 mi SW 17.3 mph - N/A   Clear
12:55 AM 57.2 °F 28.4 °F 33% 30.16 in 10.0 mi WSW 15.0 mph - N/A   Clear
1:15 AM 57.2 °F 26.6 °F 31% 30.16 in 10.0 mi WSW 12.7 mph - N/A   Clear
1:55 AM 57.2 °F 26.6 °F 31% 30.17 in 10.0 mi West 10.4 mph - N/A   Clear
2:15 AM 59.0 °F 26.6 °F 29% 30.17 in 10.0 mi West 12.7 mph - N/A   Clear
2:35 AM 57.2 °F 26.6 °F 31% 30.17 in 10.0 mi West 10.4 mph - N/A   Clear
3:15 AM 59.0 °F 24.8 °F 27% 30.17 in 10.0 mi West 12.7 mph 19.6 mph N/A   Clear
3:35 AM 57.2 °F 24.8 °F 29% 30.17 in 10.0 mi West 9.2 mph - N/A   Clear
3:55 AM 55.4 °F 24.8 °F 31% 30.17 in 10.0 mi West 10.4 mph - N/A   Clear
4:15 AM 55.4 °F 24.8 °F 31% 30.17 in 10.0 mi West 9.2 mph - N/A   Clear
4:35 AM 53.6 °F 24.8 °F 33% 30.17 in 10.0 mi West 9.2 mph - N/A   Clear
4:55 AM 53.6 °F 24.8 °F 33% 30.17 in 10.0 mi West 8.1 mph - N/A   Clear
5:15 AM 53.6 °F 24.8 °F 33% 30.18 in 10.0 mi WSW 9.2 mph - N/A   Clear
5:55 AM 51.8 °F 24.8 °F 35% 30.19 in 10.0 mi West 8.1 mph - N/A   Clear
6:15 AM 53.6 °F 24.8 °F 33% 30.19 in 10.0 mi West 8.1 mph - N/A   Clear
6:35 AM 51.8 °F 24.8 °F 35% 30.20 in 10.0 mi West 8.1 mph - N/A   Clear
6:55 AM 51.8 °F 24.8 °F 35% 30.20 in 10.0 mi West 9.2 mph - N/A   Clear
7:15 AM 50.0 °F 24.8 °F 37% 30.21 in 10.0 mi West 9.2 mph - N/A   Clear
7:35 AM 53.6 °F 26.6 °F 35% 30.21 in 10.0 mi West 9.2 mph - N/A   Clear
7:55 AM 55.4 °F 26.6 °F 33% 30.22 in 10.0 mi West 9.2 mph - N/A   Clear
8:15 AM 57.2 °F 26.6 °F 31% 30.23 in 10.0 mi WNW 8.1 mph - N/A   Clear
8:35 AM 57.2 °F 26.6 °F 31% 30.23 in 10.0 mi NNW 4.6 mph - N/A   Clear
8:55 AM 60.8 °F 28.4 °F 29% 30.24 in 10.0 mi NW 6.9 mph - N/A   Clear
9:15 AM 62.6 °F 28.4 °F 27% 30.24 in 10.0 mi WNW 12.7 mph 20.7 mph N/A   Clear
9:35 AM 64.4 °F 26.6 °F 24% 30.24 in 10.0 mi WNW 13.8 mph 20.7 mph N/A   Clear
9:55 AM 64.4 °F 26.6 °F 24% 30.24 in 10.0 mi NW 15.0 mph 20.7 mph N/A   Clear
10:15 AM 64.4 °F 26.6 °F 24% 30.24 in 10.0 mi WNW 15.0 mph 21.9 mph N/A   Clear
10:35 AM 66.2 °F 26.6 °F 23% 30.24 in 10.0 mi WNW 16.1 mph 21.9 mph N/A   Clear
10:55 AM 66.2 °F 26.6 °F 23% 30.24 in 10.0 mi WNW 11.5 mph 25.3 mph N/A   Clear
11:15 AM 66.2 °F 23.0 °F 19% 30.23 in 10.0 mi NW 12.7 mph 25.3 mph N/A   Clear
11:35 AM 68.0 °F 24.8 °F 20% 30.23 in 10.0 mi NNW 17.3 mph 26.5 mph N/A   Clear
11:55 AM 68.0 °F 24.8 °F 20% 30.23 in 10.0 mi NNW 16.1 mph 27.6 mph N/A   Clear
12:15 PM 69.8 °F 24.8 °F 18% 30.22 in 10.0 mi NNW 15.0 mph 19.6 mph N/A   Clear
12:35 PM 69.8 °F 26.6 °F 20% 30.21 in 10.0 mi NW 16.1 mph 23.0 mph N/A   Clear
12:55 PM 71.6 °F 26.6 °F 19% 30.20 in 10.0 mi NW 12.7 mph 24.2 mph N/A   Clear
1:15 PM 71.6 °F 26.6 °F 19% 30.19 in 10.0 mi NW 15.0 mph 24.2 mph N/A   Clear
1:35 PM 71.6 °F 24.8 °F 17% 30.18 in 10.0 mi NW 15.0 mph 21.9 mph N/A   Clear
1:55 PM 71.6 °F 23.0 °F 16% 30.17 in 10.0 mi WNW 17.3 mph 26.5 mph N/A   Clear
2:15 PM 73.4 °F 23.0 °F 15% 30.17 in 10.0 mi NW 13.8 mph 20.7 mph N/A   Clear
2:35 PM 73.4 °F 23.0 °F 15% 30.17 in 10.0 mi NW 15.0 mph 20.7 mph N/A   Clear
2:55 PM 73.4 °F 23.0 °F 15% 30.17 in 10.0 mi North 15.0 mph 21.9 mph N/A   Clear
3:15 PM 71.6 °F 23.0 °F 16% 30.16 in 10.0 mi North 10.4 mph 20.7 mph N/A   Clear
3:35 PM 73.4 °F 23.0 °F 15% 30.16 in 10.0 mi NW 11.5 mph 19.6 mph N/A   Clear
3:55 PM 73.4 °F 23.0 °F 15% 30.16 in 10.0 mi NNW 9.2 mph 19.6 mph N/A   Clear
4:15 PM 73.4 °F 23.0 °F 15% 30.16 in 10.0 mi NW 12.7 mph 18.4 mph N/A   Clear
4:35 PM 71.6 °F 23.0 °F 16% 30.16 in 10.0 mi WNW 11.5 mph - N/A   Clear
4:55 PM 73.4 °F 23.0 °F 15% 30.17 in 10.0 mi WNW 8.1 mph 17.3 mph N/A   Clear
5:15 PM 71.6 °F 21.2 °F 15% 30.17 in 10.0 mi WSW 9.2 mph - N/A   Clear
5:35 PM 71.6 °F 21.2 °F 15% 30.17 in 10.0 mi WSW 6.9 mph 18.4 mph N/A   Clear
5:55 PM 69.8 °F 21.2 °F 16% 30.18 in 10.0 mi WSW 10.4 mph - N/A   Clear
6:15 PM 68.0 °F 23.0 °F 18% 30.18 in 10.0 mi WSW 10.4 mph - N/A   Clear
6:35 PM 66.2 °F 23.0 °F 19% 30.19 in 10.0 mi WSW 9.2 mph - N/A   Clear
6:55 PM 62.6 °F 23.0 °F 22% 30.20 in 10.0 mi SW 10.4 mph - N/A   Clear
7:15 PM 59.0 °F 23.0 °F 25% 30.20 in 10.0 mi SW 10.4 mph - N/A   Clear
7:35 PM 59.0 °F 23.0 °F 25% 30.20 in 10.0 mi SW 10.4 mph - N/A   Clear
7:55 PM 62.6 °F 23.0 °F 22% 30.21 in 10.0 mi SW 11.5 mph - N/A   Clear
8:15 PM 59.0 °F 23.0 °F 25% 30.22 in 10.0 mi SW 9.2 mph - N/A   Clear
8:35 PM 59.0 °F 23.0 °F 25% 30.23 in 10.0 mi SW 9.2 mph - N/A   Clear
8:55 PM 57.2 °F 23.0 °F 27% 30.23 in 10.0 mi SW 10.4 mph - N/A   Clear
9:15 PM 57.2 °F 23.0 °F 27% 30.23 in 10.0 mi WSW 10.4 mph - N/A   Clear
9:35 PM 57.2 °F 23.0 °F 27% 30.24 in 10.0 mi WSW 6.9 mph - N/A   Clear
9:55 PM 55.4 °F 23.0 °F 29% 30.25 in 10.0 mi West 3.5 mph - N/A   Clear
10:15 PM 57.2 °F 23.0 °F 27% 30.25 in 10.0 mi SW 4.6 mph - N/A   Clear
10:35 PM 53.6 °F 23.0 °F 30% 30.25 in 10.0 mi South 4.6 mph - N/A   Clear
10:55 PM 51.8 °F 23.0 °F 33% 30.25 in 10.0 mi SSW 6.9 mph - N/A   Clear
11:15 PM 55.4 °F 23.0 °F 29% 30.25 in 10.0 mi SW 5.8 mph - N/A   Clear
11:35 PM 57.2 °F 23.0 °F 27% 30.25 in 10.0 mi WSW 5.8 mph - N/A   Clear
11:55 PM 55.4 °F 24.8 °F 31% 30.25 in 10.0 mi WSW 4.6 mph - N/A   Clear